Regional Weather Roundup
Issued by NWS Little Rock, AR

Home | Current Version | Previous Version | Text Only | Print | Product List | Glossary On
Versions: 1 2 3 4 5 6 7 8 9 10 11 12 13 14 15 16 17 18 19 20 21 22 23 24 25 26 27 28 29 30 31 32
000
ASUS44 KLZK 260014
RWRLZK

WEATHER ROUNDUP FOR ARKANSAS
NATIONAL WEATHER SERVICE LITTLE ROCK AR
700 PM CDT SUN SEP 25 2016

NOTE: "FAIR" INDICATES FEW OR NO CLOUDS BELOW 12,000 FEET WITH NO
SIGNIFICANT WEATHER AND/OR OBSTRUCTIONS TO VISIBILITY.

ARZ001-003-010-029-260100-
NORTHWEST ARKANSAS

CITY           SKY/WX    TMP DP  RH WIND       PRES   REMARKS
FAYETTEVILLE   CLOUDY    72  71  97 NW10      30.09R
6HR MIN TEMP:  71; 6HR MAX TEMP:  87; 6HR PCP:  0.11;

FORT SMITH     MOCLDY    79  67  66 N13       30.02R
6HR MIN TEMP:  79; 6HR MAX TEMP:  93;

HARRISON       MOCLDY    78  68  71 NW12G22   30.06R
6HR MIN TEMP:  78; 6HR MAX TEMP:  88;

BENTONVILLE    CLOUDY    72  64  78 N12G20    30.11R
6HR MIN TEMP:  72; 6HR MAX TEMP:  86;

ROGERS         CLOUDY    71  69  93 N8        30.11R
6HR MIN TEMP:  71; 6HR MAX TEMP:  87; 6HR PCP:  0.41;

SILOAM SPGS    CLOUDY   N/A N/A N/A N14         N/A
HIGHFILL       CLOUDY    72  69  90 NW13      30.10R
6HR MIN TEMP:  72; 6HR MAX TEMP:  89;

SPRINGDALE     CLOUDY    73  70  88 NW16G23   30.11R
$$

ARZ004-005-016-260100-
NORTH CENTRAL ARKANSAS

CITY           SKY/WX    TMP DP  RH WIND       PRES   REMARKS
BATESVILLE     PTCLDY    81  70  69 CALM      29.99S
6HR MIN TEMP:  81; 6HR MAX TEMP:  93;

FLIPPIN        CLEAR     82  66  57 CALM      29.99S HX  85
6HR MIN TEMP:  82; 6HR MAX TEMP:  91;

MTN HOME       CLEAR     79  68  69 CALM      30.01S
6HR MIN TEMP:  79; 6HR MAX TEMP:  89;

$$

ARZ040-041-260100-
WEST CENTRAL ARKANSAS

CITY           SKY/WX    TMP DP  RH WIND       PRES   REMARKS
MENA           CLEAR     81  73  78 CALM      30.04S HX  85
MOUNT IDA      CLEAR     78  72  81 CALM      30.01R
6HR MIN TEMP:  78; 6HR MAX TEMP:  90;

$$

ARZ009-017-025-026-028-260100-
NORTHEAST ARKANSAS

CITY           SKY/WX    TMP DP  RH WIND       PRES   REMARKS
CORNING          N/A     82  73  74 NW6       29.99R HX  88
JONESBORO      CLOUDY    85  71  63 NW7       29.97R HX  90
6HR MIN TEMP:  84; 6HR MAX TEMP:  95;

NEWPORT        CLEAR     85  71  63 NW3       29.98S HX  90
6HR MIN TEMP:  83; 6HR MAX TEMP:  94;

WALNUT RIDGE   CLOUDY    84  70  61 CALM      29.98R HX  88
6HR MIN TEMP:  84; 6HR MAX TEMP:  93;

BLYTHEVILLE    CLEAR     85  68  56 SE5       29.97S HX  88
6HR MIN TEMP:  85; 6HR MAX TEMP:  97;

$$

ARZ022-023-033-042-044-260100-
CENTRAL ARKANSAS

CITY           SKY/WX    TMP DP  RH WIND       PRES   REMARKS
LITTLE ROCK    PTCLDY    88  66  48 SW6       29.98R HX  90
6HR MIN TEMP:  88; 6HR MAX TEMP:  94;

N LITTLE ROCK    N/A     85  68  56 CALM      29.97R HX  87
6HR MIN TEMP:  85; 6HR MAX TEMP:  91;

JACKSONVILLE   CLEAR     86  75  70 CALM      29.99R HX  95
6HR MIN TEMP:  86; 6HR MAX TEMP:  94;

SEARCY         CLEAR     81  75  82 CALM      30.00R HX  87
6HR MIN TEMP:  81; 6HR MAX TEMP:  94;

HOT SPRINGS    CLEAR     84  69  60 W3        30.00R HX  88
6HR MIN TEMP:  83; 6HR MAX TEMP:  91;

RUSSELLVILLE   CLEAR     80  72  76 CALM      29.99R
6HR MIN TEMP:  80; 6HR MAX TEMP:  91;

$$

ARZ036-260100-
EAST ARKANSAS

CITY           SKY/WX    TMP DP  RH WIND       PRES   REMARKS
WEST MEMPHIS   CLOUDY    80  66  62 NW3       29.96R HAZE
6HR MIN TEMP:  81; 6HR MAX TEMP:  95;

$$

ARZ050-053-066-070-073-260100-
SOUTHWEST ARKANSAS

CITY           SKY/WX    TMP DP  RH WIND       PRES   REMARKS
ARKADELPHIA    FAIR      82  77  84 CALM      30.00R HX  90
6HR MIN TEMP:  82; 6HR MAX TEMP:  92;

TEXARKANA      CLEAR     84  67  56 S3        30.01R HX  86
6HR MIN TEMP:  84; 6HR MAX TEMP:  91;

EL DORADO      HAZE      79  74  84 CALM      30.00R VSB 3/4
6HR MIN TEMP:  81; 6HR MAX TEMP:  90;

DE QUEEN       CLEAR     80  74  81 CALM      29.99R HX  85
6HR MIN TEMP:  80; 6HR MAX TEMP:  91;

$$

ARZ056-057-069-260100-
SOUTHEAST ARKANSAS

CITY           SKY/WX    TMP DP  RH WIND       PRES   REMARKS
PINE BLUFF     PTCLDY    85  71  63 CALM      29.99R HX  90
6HR MIN TEMP:  85; 6HR MAX TEMP:  93;

STUTTGART      CLEAR     82  64  54 W6        29.99R
6HR MIN TEMP:  82; 6HR MAX TEMP:  97;

MONTICELLO     MOCLDY    85  73  67 NE5       29.98R HX  91
6HR MIN TEMP:  84; 6HR MAX TEMP:  95;


$$






USA.gov is the U.S. government's official web portal to all federal, state and local government web resources and services.